Content
SEND FEEDBACK

Daily
Averages
Monthly
Summary
United States of America

PYGA BEACH, GUAM


Home > North America > United States > Guam
Elevation: 6 meters     Latitude: 13 17N     Longitude: 144 39E

WEATHER
 
SELECT A DAY
Number of Records: 341,964;   Date Range: 1/1/95 - 7/26/14
 
SHARE

PRINT THIS DATA

[ ← Previous Day ]
WEATHER ALMANAC - 9 FEBRUARY, 2013
[ Next Day → ]
[ °F ]   °C
Weather ElementAverageHighLow
Temperature26 °C29 °C (1:04 pm)23 °C (5:40 am)
Dewpoint23 °C24 °C (8:07 am)21.7 °C (1:55 am)
Humidity83.7 %94 % (3:08 am)70 % (1:04 pm)
Barometer1011.5 hPa1013.2 hPa (8:55 am)1009.8 hPa (3:35 pm)
Wind Speed20.6 km/h31.5 km/h (5:32 am)
Wind Gust38.9 km/h (5:30 am)
Weather ElementAverage
Visibility15.3 km
Wind DirectionENE (82.3 °)

Weather ElementTotal
Precipitation4.32 mm
Cooling Degree Days7.7 (Base 18.3)
Growing Degree Days16 (Base 10)
Averaged from 115 records on 9 February, 2013
WEATHER CONDITIONS BREAKOUT
WIND DIRECTION BREAKOUT
WEATHER BY HOUR - 9 FEBRUARY, 2013
[ °F ]   °C
Local TimeTemperatureDewpointHumidityBarometerVisibilityWind DirectionWind SpeedGust SpeedPrecipitationEventsConditions
12:55 AM24.6 °C22.9 °C90 %1011.5 hPa16.1 kmENE (70°)13 km/hMostly Cloudy
1:10 AM25 °C23 °C89 %1011.5 hPa16.1 kmENE (70°)13 km/hMostly Cloudy
1:20 AM25 °C23 °C89 %1011.2 hPa16.1 kmENE (60°)16.7 km/hScattered Clouds
1:25 AM25 °C23 °C89 %1011.2 hPa16.1 kmENE (60°)16.7 km/hRainLight Rain
1:35 AM24 °C22 °C89 %1011.2 hPa16.1 kmEast (80°)16.7 km/hScattered Clouds
1:55 AM24.4 °C21.7 °C85 %1011.2 hPa16.1 kmENE (70°)18.5 km/h0 mmPartly Cloudy
2:45 AM25 °C23 °C89 %1010.8 hPa16.1 kmENE (70°)13 km/hMostly Cloudy
2:46 AM25 °C23 °C89 %1010.8 hPa16.1 kmEast (80°)13 km/hMostly Cloudy
2:47 AM25 °C23 °C89 %1010.8 hPa16.1 kmEast (80°)13 km/hMostly Cloudy
2:55 AM24.6 °C22.2 °C86 %1010.8 hPa8 kmEast (80°)20.4 km/h33.3 km/h0.76 mmRainHeavy Rain
2:57 AM24 °C22 °C89 %1010.8 hPa8 kmENE (70°)25.9 km/h33.3 km/hRainRain
3:08 AM24 °C23 °C94 %1010.8 hPa16.1 kmEast (80°)14.8 km/hMostly Cloudy
3:13 AM24 °C23 °C94 %1010.8 hPa16.1 kmEast (80°)14.8 km/hScattered Clouds
3:45 AM25 °C23 °C89 %1010.5 hPa16.1 kmEast (80°)16.7 km/hMostly Cloudy
3:55 AM24.8 °C22.7 °C88 %1010.5 hPa16.1 kmENE (70°)22.2 km/h0 mmMostly Cloudy
3:59 AM25 °C22 °C83 %1010.5 hPa16.1 kmENE (70°)20.4 km/hScattered Clouds
4:10 AM24 °C23 °C94 %1010.5 hPa16.1 kmENE (70°)18.5 km/hMostly Cloudy
4:12 AM24 °C23 °C94 %1010.5 hPa16.1 kmENE (70°)22.2 km/hMostly Cloudy
4:34 AM25 °C23 °C89 %1010.5 hPa16.1 kmEast (80°)20.4 km/hMostly Cloudy
4:35 AM25 °C23 °C89 %1010.5 hPa16.1 kmEast (80°)20.4 km/hScattered Clouds
4:40 AM25 °C23 °C89 %1010.5 hPa16.1 kmEast (90°)20.4 km/hMostly Cloudy
4:48 AM25 °C22 °C83 %1010.5 hPa16.1 kmEast (90°)18.5 km/hScattered Clouds
4:55 AM24.7 °C22.5 °C87 %1010.5 hPa16.1 kmEast (80°)20.4 km/hScattered Clouds
5:03 AM25 °C23 °C89 %1010.8 hPa16.1 kmEast (90°)20.4 km/hMostly Cloudy
5:17 AM24 °C22 °C89 %1010.8 hPa16.1 kmESE (110°)16.7 km/hScattered Clouds
5:23 AM24 °C23 °C94 %1010.8 hPa16.1 kmEast (100°)14.8 km/hRainLight Rain
5:25 AM24 °C23 °C94 %1010.8 hPa14.5 kmEast (90°)16.7 km/hRainLight Rain
5:30 AM24 °C22 °C89 %1011.2 hPa9.7 kmENE (70°)29.6 km/h38.9 km/hRainRain
5:32 AM24 °C22 °C89 %1011.2 hPa6.4 kmENE (70°)31.5 km/h38.9 km/hRainHeavy Rain
5:36 AM24 °C22 °C89 %1011.2 hPa4 kmEast (80°)24.1 km/h38.9 km/hRainHeavy Rain
5:37 AM24 °C22 °C89 %1011.2 hPa4 kmEast (80°)27.8 km/h38.9 km/hRainRain
5:40 AM23 °C22 °C94 %1011.2 hPa4.8 kmENE (70°)25.9 km/h38.9 km/hRainLight Rain
5:44 AM23 °C22 °C94 %1011.2 hPa9.7 kmENE (70°)27.8 km/h37 km/hRainLight Rain
5:55 AM23.4 °C22.2 °C93 %1011.2 hPa14.5 kmENE (60°)13 km/h2.29 mmMostly Cloudy
6:55 AM24.7 °C22.6 °C88 %1011.9 hPa16.1 kmEast (80°)20.4 km/hMostly Cloudy
7:17 AM25 °C23 °C89 %1012.2 hPa11.3 kmEast (80°)29.6 km/h37 km/hRainRain
7:29 AM25 °C23 °C89 %1012.5 hPa14.5 kmEast (80°)22.2 km/hMostly Cloudy
7:39 AM25 °C23 °C89 %1012.5 hPa16.1 kmEast (80°)18.5 km/hMostly Cloudy
7:47 AM25 °C23 °C89 %1012.5 hPa16.1 kmEast (80°)24.1 km/hMostly Cloudy
7:55 AM25.4 °C23 °C86 %1012.5 hPa16.1 kmEast (90°)20.4 km/h0.25 mmMostly Cloudy
7:59 AM25 °C23 °C89 %1012.9 hPa16.1 kmEast (80°)16.7 km/hMostly Cloudy
8:05 AM25 °C23 °C89 %1012.9 hPa12.9 kmENE (60°)22.2 km/hRainHeavy Rain
8:07 AM26 °C24 °C89 %1012.9 hPa11.3 kmEast (80°)18.5 km/hRainLight Rain
8:16 AM26 °C23 °C83 %1012.9 hPa16.1 kmEast (80°)24.1 km/hMostly Cloudy
8:26 AM26 °C23 °C83 %1012.9 hPa16.1 kmEast (90°)22.2 km/hScattered Clouds
8:27 AM26 °C23 °C83 %1012.9 hPa16.1 kmEast (90°)22.2 km/hMostly Cloudy
8:30 AM26 °C23 °C83 %1012.9 hPa16.1 kmEast (80°)20.4 km/hMostly Cloudy
8:45 AM26 °C23 °C83 %1012.9 hPa16.1 kmEast (90°)24.1 km/hScattered Clouds
8:55 AM26.6 °C23.1 °C81 %1013.2 hPa16.1 kmEast (90°)22.2 km/h0.25 mmScattered Clouds
9:23 AM27 °C23 °C79 %1013.2 hPa16.1 kmEast (90°)20.4 km/hMostly Cloudy
9:55 AM27.3 °C23.5 °C80 %1013.2 hPa16.1 kmEast (90°)22.2 km/hMostly Cloudy
10:22 AM28 °C23 °C74 %1013.2 hPa16.1 kmEast (100°)24.1 km/hScattered Clouds
10:36 AM28 °C24 °C79 %1012.9 hPa16.1 kmESE (110°)20.4 km/hMostly Cloudy
10:46 AM28 °C23 °C74 %1012.9 hPa16.1 kmEast (100°)25.9 km/hScattered Clouds
10:50 AM28 °C23 °C74 %1012.9 hPa16.1 kmEast (100°)24.1 km/hMostly Cloudy
10:55 AM28 °C23.3 °C75 %1012.9 hPa16.1 kmEast (90°)25.9 km/hMostly Cloudy
10:59 AM28 °C23 °C74 %1012.9 hPa16.1 kmEast (100°)22.2 km/hScattered Clouds
11:03 AM28 °C23 °C74 %1012.9 hPa16.1 kmEast (90°)24.1 km/hMostly Cloudy
11:13 AM28 °C23 °C74 %1012.9 hPa16.1 kmEast (90°)25.9 km/hScattered Clouds
11:25 AM28 °C24 °C79 %1012.5 hPa16.1 kmEast (90°)22.2 km/hMostly Cloudy
11:31 AM28 °C23 °C74 %1012.5 hPa16.1 kmESE (110°)24.1 km/hScattered Clouds
11:55 AM28.5 °C23.6 °C75 %1012.2 hPa16.1 kmESE (110°)24.1 km/hPartly Cloudy
12:13 PM28 °C23 °C74 %1011.9 hPa16.1 kmEast (90°)22.2 km/hMostly Cloudy
12:55 PM28.5 °C23.3 °C73 %1011.2 hPa16.1 kmEast (100°)22.2 km/hMostly Cloudy
1:04 PM29 °C23 °C70 %1011.2 hPa16.1 kmEast (90°)24.1 km/h33.3 km/hScattered Clouds
1:06 PM29 °C23 °C70 %1011.2 hPa16.1 kmEast (90°)22.2 km/h33.3 km/hMostly Cloudy
1:09 PM29 °C23 °C70 %1011.2 hPa16.1 kmEast (100°)22.2 km/h33.3 km/hScattered Clouds
1:13 PM29 °C23 °C70 %1011.2 hPa16.1 kmEast (100°)18.5 km/h33.3 km/hMostly Cloudy
1:15 PM29 °C23 °C70 %1011.2 hPa16.1 kmEast (100°)24.1 km/hScattered Clouds
1:32 PM29 °C24 °C74 %1010.8 hPa16.1 kmEast (80°)22.2 km/hMostly Cloudy
1:55 PM28.4 °C23.5 °C75 %1010.8 hPa16.1 kmEast (100°)22.2 km/hMostly Cloudy
2:03 PM28 °C23 °C74 %1010.5 hPa16.1 kmEast (100°)22.2 km/hScattered Clouds
2:09 PM29 °C23 °C70 %1010.5 hPa16.1 kmESE (110°)22.2 km/hMostly Cloudy
2:12 PM29 °C23 °C70 %1010.5 hPa16.1 kmEast (100°)22.2 km/hScattered Clouds
2:42 PM28 °C23 °C74 %1010.2 hPa16.1 kmEast (100°)18.5 km/hMostly Cloudy
2:55 PM27.9 °C23.3 °C76 %1010.2 hPa16.1 kmEast (90°)22.2 km/hMostly Cloudy
3:12 PM28 °C23 °C74 %1010.2 hPa16.1 kmEast (100°)22.2 km/hScattered Clouds
3:19 PM28 °C23 °C74 %1010.2 hPa16.1 kmEast (80°)24.1 km/hMostly Cloudy
3:35 PM28 °C23 °C74 %1009.8 hPa16.1 kmEast (90°)20.4 km/hScattered Clouds
3:37 PM28 °C23 °C74 %1010.2 hPa16.1 kmEast (80°)20.4 km/hMostly Cloudy
3:55 PM27.6 °C23.3 °C77 %1010.2 hPa16.1 kmEast (90°)22.2 km/hMostly Cloudy
4:22 PM27 °C23 °C79 %1010.2 hPa16.1 kmEast (80°)16.7 km/hScattered Clouds
4:55 PM27.1 °C23.2 °C79 %1010.2 hPa16.1 kmEast (90°)22.2 km/hScattered Clouds
5:38 PM27 °C23 °C79 %1010.5 hPa16.1 kmENE (70°)20.4 km/hMostly Cloudy
5:45 PM26 °C23 °C83 %1010.5 hPa16.1 kmENE (70°)18.5 km/hMostly Cloudy
5:50 PM26 °C23 °C83 %1010.5 hPa16.1 kmEast (80°)22.2 km/hMostly Cloudy
5:54 PM26 °C23 °C83 %1010.5 hPa16.1 kmENE (70°)24.1 km/hMostly Cloudy
5:55 PM26.2 °C23.1 °C83 %1010.5 hPa16.1 kmEast (80°)24.1 km/hMostly Cloudy
6:01 PM26 °C23 °C83 %1010.8 hPa16.1 kmEast (80°)14.8 km/hMostly Cloudy
6:06 PM26 °C23 °C83 %1010.8 hPa16.1 kmEast (80°)20.4 km/hMostly Cloudy
6:13 PM26 °C23 °C83 %1010.8 hPa16.1 kmENE (70°)18.5 km/hMostly Cloudy
6:14 PM26 °C23 °C83 %1010.8 hPa16.1 kmENE (70°)20.4 km/hMostly Cloudy
6:55 PM25.9 °C23.2 °C85 %1011.2 hPa16.1 kmEast (80°)18.5 km/hMostly Cloudy
7:00 PM26 °C23 °C83 %1011.2 hPa16.1 kmEast (80°)18.5 km/hMostly Cloudy
7:06 PM26 °C23 °C83 %1011.2 hPa16.1 kmEast (80°)18.5 km/hMostly Cloudy
7:08 PM26 °C23 °C83 %1011.2 hPa16.1 kmEast (80°)18.5 km/hMostly Cloudy
7:09 PM26 °C23 °C83 %1011.2 hPa16.1 kmEast (80°)18.5 km/hMostly Cloudy
7:53 PM26 °C23 °C83 %1011.5 hPa16.1 kmENE (70°)18.5 km/hScattered Clouds
7:55 PM25.6 °C23.1 °C86 %1011.5 hPa16.1 kmENE (70°)18.5 km/hMostly Cloudy
7:59 PM26 °C23 °C83 %1011.5 hPa16.1 kmEast (80°)18.5 km/hScattered Clouds
8:02 PM26 °C23 °C83 %1011.5 hPa16.1 kmENE (70°)18.5 km/hMostly Cloudy
8:11 PM26 °C23 °C83 %1011.9 hPa16.1 kmEast (80°)18.5 km/hScattered Clouds
8:55 PM25.4 °C23.1 °C87 %1011.9 hPa16.1 kmEast (80°)16.7 km/hPartly Cloudy
9:55 PM25 °C24 °C94 %1012.2 hPa11.3 kmENE (70°)20.4 km/h0.76 mmRainLight Rain
10:28 PM25 °C23 °C89 %1011.9 hPa16.1 kmENE (70°)20.4 km/hScattered Clouds
10:40 PM25 °C23 °C89 %1011.9 hPa16.1 kmENE (70°)18.5 km/hMostly Cloudy
10:46 PM25 °C23 °C89 %1011.9 hPa16.1 kmENE (70°)18.5 km/hScattered Clouds
10:55 PM25 °C23.5 °C91 %1011.9 hPa16.1 kmENE (70°)16.7 km/h0 mmScattered Clouds
10:59 PM25 °C23 °C89 %1011.9 hPa16.1 kmENE (70°)16.7 km/hMostly Cloudy
11:07 PM25 °C23 °C89 %1011.9 hPa16.1 kmENE (70°)16.7 km/hScattered Clouds
11:16 PM25 °C23 °C89 %1011.9 hPa16.1 kmENE (70°)18.5 km/hMostly Cloudy
11:30 PM25 °C24 °C94 %1011.9 hPa16.1 kmENE (70°)22.2 km/hMostly Cloudy
11:32 PM25 °C24 °C94 %1011.9 hPa16.1 kmEast (80°)22.2 km/hMostly Cloudy
11:33 PM25 °C24 °C94 %1011.9 hPa16.1 kmENE (70°)18.5 km/hMostly Cloudy
11:55 PM25.1 °C23.6 °C91 %1011.9 hPa16.1 kmEast (80°)16.7 km/hMostly Cloudy
Hourly data recorded from PGUA, located 0 kilometers away from Pyga Beach, Guam







STORIES FROM OUR PARTNERS